sat.trackr.live / text

‹ back to catalog

STARLINK-34053

NORAD 63837 · 2025-093B

PAYLOAD ACTIVE UNKNOWN

§ Identity

Operator
Country
US
Launch date
2025-05-07
Launch site
AFETR
Launch vehicle
Mass (kg)
RCS (m²)

Purposes: comms

External: N2YO · Heavens-Above · Gunter

§ Orbital elements

Epoch: 2026-09-20T03:58:21.164736Z

Period
94.26 min
Inclination
43.0044°
Eccentricity
0.0001749
Mean motion
15.27632858 rev/d
Perigee alt
481.7 km
Apogee alt
484.1 km
Semi-major
6,861.0 km
B*
4.6758e-4
RAAN
59.7007°
Arg perigee
283.3211°
Mean anomaly
76.7446°
Rev number
7,765

§ Raw data

STARLINK-340531 63837U 25093B   26263.16552274  .00012647  00000+0  46758-3 0  99992 63837  43.0044  59.7007 0001749 283.3211  76.7446 15.27632858 77659

JSON: /api/v1/satellites/63837 · /tle

For live sub-satellite position, see the globe view (requires WebGL).

§ Visibility from observer

Set your observer location to see the next 7 days of passes ≥ 10°. The values pass through the URL so the page stays shareable.

No JS? Fill the form by hand. The geolocation button needs JavaScript.